KC0AFB Weather Reports


Display with metric or nautical units.
time (UTC)temp
F
wind
direction
speed
MPH
gust
MPH
rain 1hr
in
rain 24hr
in
rain mn
in
humidity
%
barometer
mb
20260504192710 47 337 14.0 17.0 0.00 0.00 0.00 53 1008.4
20260504192208 46 300 12.0 16.0 0.00 0.00 0.00 51 1008.4
20260504191707 48 297 15.0 21.0 0.00 0.00 0.00 49 1008.4
20260504191203 49 284 15.0 20.0 0.00 0.00 0.00 48 1008.2
20260504190658 47 309 8.0 10.0 0.00 0.00 0.00 51 1008.3
20260504190155 48 323 15.0 20.0 0.00 0.00 0.00 49 1008.3
20260504185651 48 308 19.0 23.0 0.00 0.00 0.00 47 1008.2
20260504185147 49 282 11.0 16.0 0.00 0.00 0.00 49 1008.2
20260504184644 48 309 15.0 20.0 0.00 0.00 0.00 47 1008.3
20260504184133 48 339 15.0 20.0 0.00 0.00 0.00 46 1008.3
20260504183631 49 322 13.0 16.0 0.00 0.00 0.00 46 1008.5
20260504183128 49 322 16.0 18.0 0.00 0.00 0.00 45 1008.2
20260504182626 48 275 19.0 22.0 0.00 0.00 0.00 45 1008.0
20260504182123 47 298 16.0 17.0 0.00 0.00 0.00 47 1008.1
20260504181620 48 316 18.0 21.0 0.00 0.00 0.00 46 1008.0
20260504181118 47 315 15.0 17.0 0.00 0.00 0.00 46 1008.2
20260504180617 48 313 18.0 23.0 0.00 0.00 0.00 45 1008.0
20260504180115 48 303 16.0 20.0 0.00 0.00 0.00 46 1008.1
20260504175612 47 287 14.0 18.0 0.00 0.00 0.00 47 1008.2
20260504175109 46 278 21.0 27.0 0.00 0.00 0.00 48 1008.1
20260504174607 46 322 22.0 25.0 0.00 0.00 0.00 48 1008.1
20260504174103 46 307 13.0 16.0 0.00 0.00 0.00 48 1008.1
20260504173600 47 283 20.0 27.0 0.00 0.00 0.00 47 1008.1
20260504173058 47 312 16.0 18.0 0.00 0.00 0.00 48 1008.3
20260504172554 46 318 13.0 16.0 0.00 0.00 0.00 49 1008.3
20260504172050 46 301 17.0 23.0 0.00 0.00 0.00 48 1008.0
20260504171547 47 294 13.0 18.0 0.00 0.00 0.00 48 1007.9
20260504171044 46 324 13.0 16.0 0.00 0.00 0.00 48 1008.0
20260504170540 47 337 16.0 21.0 0.00 0.00 0.00 46 1008.0
20260504150918 41 307 11.0 15.0 0.00 0.00 0.00 59 1008.2
20260504150415 41 292 15.0 20.0 0.00 0.00 0.00 59 1008.4
20260504140841 42 337 16.0 18.0 0.00 0.00 0.00 58 1007.7
20260504140337 42 289 11.0 15.0 0.00 0.00 0.00 58 1007.7
20260504130806 41 283 9.0 13.0 0.00 0.00 0.00 65 1007.0
20260504130302 41 319 14.0 16.0 0.00 0.00 0.00 65 1007.1
20260504120226 42 308 12.0 17.0 0.00 0.00 0.00 63 1005.5
20260504110653 44 325 15.0 20.0 0.00 0.00 0.00 58 1004.7
20260504110149 44 294 12.0 14.0 0.00 0.00 0.00 57 1004.8
20260504100610 46 304 7.0 9.0 0.00 0.00 0.00 57 1004.3
20260504100108 47 3 13.0 16.0 0.00 0.00 0.00 56 1004.3
20260504082004 42 294 2.0 2.0 0.00 0.00 0.00 84 1002.8
20260504081501 42 237 1.0 2.0 0.00 0.00 0.00 84 1002.7
20260504081001 42 162 0.0 0.0 0.00 0.00 0.00 82 1002.7
20260504080458 42 244 1.0 1.0 0.00 0.00 0.00 82 1002.6
20260504050305 52 338 17.0 20.0 0.00 0.00 0.00 63 1001.2
20260504045802 53 327 12.0 18.0 0.00 0.00 0.00 62 1001.3
20260504045257 54 15 18.0 23.0 0.00 0.00 0.00 61 1000.8
20260504044755 59 2 18.0 23.0 0.00 0.00 0.00 55 1000.4
20260504044252 61 299 12.0 14.0 0.00 0.00 0.00 40 999.8
20260504043749 62 264 11.0 13.0 0.00 0.00 0.00 37 998.8
20260504043246 60 287 8.0 11.0 0.00 0.00 0.00 41 998.9
20260504042744 60 233 3.0 3.0 0.00 0.00 0.00 44 998.7
20260504042240 59 245 2.0 3.0 0.00 0.00 0.00 45 998.5
20260504041736 60 299 4.0 5.0 0.00 0.00 0.00 45 998.6
20260504041232 60 297 4.0 6.0 0.00 0.00 0.00 44 999.0
20260504040728 60 272 5.0 5.0 0.00 0.00 0.00 44 998.9
20260504040226 61 262 5.0 7.0 0.00 0.00 0.00 45 998.6
20260504035722 61 255 5.0 6.0 0.00 0.00 0.00 45 998.8
20260504035220 60 231 6.0 7.0 0.00 0.00 0.00 46 998.8
20260504034717 60 223 3.0 5.0 0.00 0.00 0.00 47 998.7
20260504034214 60 217 4.0 5.0 0.00 0.00 0.00 47 998.7
20260504033712 60 222 5.0 6.0 0.00 0.00 0.00 47 999.1
20260504033209 60 237 5.0 7.0 0.00 0.00 0.00 47 998.9
20260504032706 60 227 4.0 6.0 0.00 0.00 0.00 47 998.9
20260504032203 60 193 3.0 5.0 0.00 0.00 0.00 47 999.1
20260504031659 60 236 5.0 6.0 0.00 0.00 0.00 47 999.3
20260504031156 60 286 4.0 5.0 0.00 0.00 0.00 47 999.0
20260504030652 61 240 4.0 6.0 0.00 0.00 0.00 47 999.2
20260504030150 61 241 4.0 5.0 0.00 0.00 0.00 46 999.3
20260504025646 61 199 4.0 5.0 0.00 0.00 0.00 46 999.3
20260504025142 62 226 5.0 6.0 0.00 0.00 0.00 45 999.2
20260504024635 62 237 5.0 6.0 0.00 0.00 0.00 45 999.6
20260504024131 63 244 4.0 6.0 0.00 0.00 0.00 44 999.6
20260504023627 64 247 7.0 8.0 0.00 0.00 0.00 43 999.6
20260504023124 64 239 5.0 6.0 0.00 0.00 0.00 42 999.7
20260504022620 64 224 4.0 5.0 0.00 0.00 0.00 42 999.7
20260504022116 65 239 7.0 8.0 0.00 0.00 0.00 41 999.8
20260504021614 65 241 8.0 10.0 0.00 0.00 0.00 41 999.7
20260504021110 66 280 7.0 9.0 0.00 0.00 0.00 40 1000.0
20260504020608 66 238 4.0 5.0 0.00 0.00 0.00 40 1000.1
20260504020104 66 237 6.0 7.0 0.00 0.00 0.00 39 1000.0
20260504015600 66 238 7.0 9.0 0.00 0.00 0.00 39 1000.3
20260504015056 67 244 6.0 7.0 0.00 0.00 0.00 39 1000.1
20260504014552 68 184 9.0 11.0 0.00 0.00 0.00 37 1000.1
20260504014050 68 214 5.0 7.0 0.00 0.00 0.00 37 1000.0
20260504013547 68 236 7.0 8.0 0.00 0.00 0.00 37 1000.3
20260504013044 69 234 8.0 10.0 0.00 0.00 0.00 36 1000.3
20260504012542 69 215 11.0 13.0 0.00 0.00 0.00 35 1000.2
20260504012039 69 265 7.0 10.0 0.00 0.00 0.00 36 1000.3
20260504011536 69 235 7.0 9.0 0.00 0.00 0.00 36 1000.1
20260504011032 69 266 6.0 8.0 0.00 0.00 0.00 36 1000.7
20260504010527 69 217 5.0 7.0 0.00 0.00 0.00 37 1000.7
20260504010018 69 275 5.0 7.0 0.00 0.00 0.00 37 1000.8
20260504005515 69 254 3.0 3.0 0.00 0.00 0.00 37 1001.0
20260504005013 69 268 5.0 6.0 0.00 0.00 0.00 37 1000.9
20260504004510 70 253 7.0 8.0 0.00 0.00 0.00 35 1000.9
20260504004007 71 279 11.0 14.0 0.00 0.00 0.00 34 1001.0
20260504003503 71 265 7.0 9.0 0.00 0.00 0.00 34 1001.1
20260504003000 72 209 7.0 11.0 0.00 0.00 0.00 33 1001.3
20260504002457 72 264 8.0 10.0 0.00 0.00 0.00 32 1001.7
20260504001954 72 258 7.0 9.0 0.00 0.00 0.00 32 1001.6
20260504001452 73 248 12.0 15.0 0.00 0.00 0.00 31 1001.9
20260504000948 73 261 8.0 10.0 0.00 0.00 0.00 33 1001.9
20260504000445 73 253 6.0 7.0 0.00 0.00 0.00 33 1001.7
20260503235943 72 267 7.0 9.0 0.00 0.00 0.00 32 1002.1
20260503235440 71 264 5.0 7.0 0.00 0.00 0.00 33 1002.2
20260503234937 71 248 5.0 6.0 0.00 0.00 0.00 34 1002.2
20260503234435 71 266 8.0 13.0 0.00 0.00 0.00 33 1002.3
20260503233933 72 235 7.0 9.0 0.00 0.00 0.00 32 1002.5
20260503233429 72 212 9.0 10.0 0.00 0.00 0.00 31 1002.7
20260503232926 72 278 11.0 14.0 0.00 0.00 0.00 32 1002.6
20260503232422 71 269 8.0 9.0 0.00 0.00 0.00 31 1002.7
20260503231920 71 248 10.0 13.0 0.00 0.00 0.00 33 1002.8
20260503231418 71 276 6.0 9.0 0.00 0.00 0.00 33 1003.0
20260503230914 71 284 9.0 11.0 0.00 0.00 0.00 32 1002.8
20260503230410 72 250 9.0 11.0 0.00 0.00 0.00 31 1003.1
20260503225908 72 283 11.0 14.0 0.00 0.00 0.00 31 1003.0
20260503225404 73 255 12.0 15.0 0.00 0.00 0.00 30 1002.9
20260503224900 74 254 8.0 11.0 0.00 0.00 0.00 32 1003.1
20260503224357 74 254 10.0 11.0 0.00 0.00 0.00 29 1003.2
20260503223855 74 281 11.0 13.0 0.00 0.00 0.00 29 1003.3
20260503223353 73 288 7.0 8.0 0.00 0.00 0.00 31 1003.4
20260503222848 75 290 13.0 16.0 0.00 0.00 0.00 28 1003.5
20260503222347 75 219 8.0 10.0 0.00 0.00 0.00 29 1003.5
20260503221845 75 237 11.0 20.0 0.00 0.00 0.00 29 1003.8
20260503221343 75 239 10.0 14.0 0.00 0.00 0.00 30 1003.8
20260503220838 73 291 12.0 14.0 0.00 0.00 0.00 30 1003.8
20260503220336 74 252 10.0 13.0 0.00 0.00 0.00 30 1003.9
20260503215833 73 242 14.0 17.0 0.00 0.00 0.00 29 1003.9
20260503215330 75 275 9.0 11.0 0.00 0.00 0.00 32 1003.8
20260503214827 75 217 15.0 21.0 0.00 0.00 0.00 29 1004.1
20260503214325 75 234 11.0 14.0 0.00 0.00 0.00 29 1004.2
20260503213822 74 227 11.0 16.0 0.00 0.00 0.00 32 1004.2
20260503213319 75 295 11.0 15.0 0.00 0.00 0.00 31 1004.5
20260503212816 74 240 13.0 16.0 0.00 0.00 0.00 30 1004.4
20260503212314 73 250 10.0 13.0 0.00 0.00 0.00 31 1004.6
20260503211811 73 254 9.0 13.0 0.00 0.00 0.00 32 1004.8
20260503211308 72 274 11.0 13.0 0.00 0.00 0.00 31 1004.9
20260503210808 73 212 12.0 15.0 0.00 0.00 0.00 31 1005.1
20260503210305 74 280 9.0 13.0 0.00 0.00 0.00 32 1005.3
20260503205800 73 245 11.0 13.0 0.00 0.00 0.00 31 1005.5
20260503205257 73 205 11.0 15.0 0.00 0.00 0.00 32 1005.7
20260503204754 73 221 9.0 10.0 0.00 0.00 0.00 32 1005.9
20260503204251 73 276 11.0 13.0 0.00 0.00 0.00 32 1005.9
20260503203749 73 286 13.0 16.0 0.00 0.00 0.00 32 1006.1
20260503203246 73 250 11.0 13.0 0.00 0.00 0.00 31 1006.2
20260503202743 73 297 10.0 15.0 0.00 0.00 0.00 31 1006.2
20260503202241 72 280 11.0 16.0 0.00 0.00 0.00 32 1006.5
20260503201738 73 250 10.0 13.0 0.00 0.00 0.00 31 1006.5
20260503201236 73 270 11.0 16.0 0.00 0.00 0.00 31 1006.5
20260503200732 73 273 15.0 20.0 0.00 0.00 0.00 29 1006.7
20260503200228 72 282 15.0 17.0 0.00 0.00 0.00 31 1006.7
20260503195725 73 280 10.0 13.0 0.00 0.00 0.00 32 1006.9
20260503195222 72 299 7.0 8.0 0.00 0.00 0.00 32 1007.0
20260503194720 72 287 15.0 21.0 0.00 0.00 0.00 31 1007.2
20260503194215 72 285 9.0 10.0 0.00 0.00 0.00 32 1007.1
20260503193712 72 284 11.0 15.0 0.00 0.00 0.00 33 1007.5
20260503193208 71 229 12.0 16.0 0.00 0.00 0.00 32 1007.2